Temp
52 42 42 50 55 54 53 50 48 52 54 53 54 54 58 63 64 64 67 70 71 71 73 73 73 75 77 78 79 80 80 81 82 81 70 69 68 69 69 72 76 80 79 79
46 40 50 56 55 52 52 49 48 48 52 53 52 51 58 61 62 62 63 65 67 66 68 68 69 71 72 74 76 78 78 79 80 81 80 77 77 74 73 72 72 72 77 76
44 46 55 53 51 49 50 48 47 47 49 51 49 50 52 55 56 57 59 62 63 63 65 67 69 69 70 70 71 72 74 75 77 78 80 79 78 76 74 73 73 73 71 74
42 46 50 50 49 52 43 50 50 47 46 43 48 46 49 52 52 56 59 60 61 62 65 66 67 67 68 67 66 67 69 70 72 73 74 75 74 71 74 76 76 75 73 69
36 40 45 44 48 53 44 51 48 46 46 44 43 44 47 53 50 52 57 59 61 62 63 64 65 65 67 66 66 68 69 70 71 72 72 74 73 75 76 76 75 75 73 71
37 44 43 43 45 46 49 48 46 46 43 36 43 41 45 48 52 53 56 59 60 61 63 65 66 66 67 67 66 67 69 69 69 69 70 71 72 73 72 72 72 72 72 68
34 37 42 47 38 42 43 44 34 33 33 36 39 38 48 52 54 57 55 57 59 61 62 62 63 63 64 64 65 66 67 67 68 68 68 69 69 70 71 72 71 71 70 67
35 31 38 44 45 42 43 45 37 30 34 38 37 37 47 54 56 58 56 57 58 60 61 61 61 62 63 63 64 65 65 65 66 67 67 68 68 69 70 71 72 72 72 72
37 34 47 47 48 49 41 38 44 35 34 35 42 43 49 51 52 55 56 57 57 58 59 59 61 61 61 62 62 62 63 64 64 64 65 66 67 66 66 67 69 70 71 71
43 33 43 45 50 48 46 47 36 35 29 31 38 40 45 46 50 54 55 55 56 57 58 58 59 58 58 58 59 60 61 61 62 61 62 62 61 61 62 63 64 66 68 68
48 43 37 45 42 41 41 40 39 41 38 35 38 43 55 52 54 52 54 55 55 56 56 57 57 57 56 57 57 57 57 58 58 59 60 59 57 56 56 55 56 57 58 59
46 43 35 38 45 47 46 43 43 37 32 34 34 43 55 57 56 53 55 54 55 55 54 55 54 55 55 54 55 55 55 56 56 57 58 58 58 58 57 56 57 57 56 56
48 38 31 33 39 44 40 42 42 40 38 30 36 43 52 54 54 56 54 55 54 53 53 54 54 52 53 52 52 52 53 54 55 56 56 55 55 54 53 54 54 54 54 53
50 41 38 36 36 40 34 39 41 37 32 37 38 44 50 52 53 55 54 54 53 52 50 51 51 51 51 50 50 51 51 52 52 52 52 50 49 47 47 47 48 47 48 47
49 37 38 39 39 39 38 38 38 32 38 33 41 40 51 53 53 55 54 50 47 49 49 48 49 49 50 49 50 50 50 50 50 49 48 46 46 44 43 43 43 44 43 43
45 34 33 32 38 38 34 39 40 39 40 39 42 42 55 57 57 54 50 46 44 44 46 47 47 48 47 48 48 48 48 47 48 45 44 45 43 42 40 41 42 42 40 41
44 36 34 33 36 36 32 37 39 41 43 43 36 47 54 53 52 50 47 46 44 44 44 46 46 47 47 46 46 45 46 47 45 43 44 43 41 39 38 39 38 37 37 38
43 39 37 34 35 27 41 46 46 43 46 47 47 50 52 53 50 48 48 47 46 45 44 45 48 47 47 47 47 47 46 42 39 38 37 37 38 37 38 37 36 36 36 35
48 42 34 32 33 40 43 42 42 41 44 50 47 51 53 51 49 47 47 47 46 46 46 46 45 44 46 46 46 45 43 41 38 37 37 37 37 36 36 34 33 32 32 32
44 44 39 33 27 30 43 48 52 50 42 51 50 51 51 50 47 50 47 46 45 46 46 45 44 43 43 42 45 43 40 39 36 37 36 37 36 35 34 33 33 33 33 32
36 37 34 35 33 40 49 50 51 37 43 52 50 51 52 49 52 47 45 44 45 44 44 44 43 40 40 42 40 37 36 35 36 36 36 36 36 34 34 34 34 34 36 37
37 34 32 34 31 29 50 48 43 49 52 53 52 52 50 49 43 43 43 42 42 41 42 42 41 40 41 39 38 36 35 36 37 37 36 36 38 39 39 39 41 41 41 39
37 44 41 41 42 51 52 50 54 52 53 53 52 53 51 46 43 45 40 40 41 40 39 40 39 37 38 38 38 36 36 37 38 40 39 40 42 42 42 41 40 40 41 40
46 48 44 43 50 51 53 54 52 52 52 53 52 52 51 50 47 43 42 39 38 40 39 42 40 38 36 38 38 38 38 41 42 41 41 42 41 40 41 41 41 41 40 39
48 47 46 46 49 51 54 54 51 51 52 51 51 51 50 50 48 47 43 40 39 39 40 41 40 39 37 38 38 41 42 43 42 41 41 41 40 40 40 40 40 39 38 38
47 47 45 45 53 52 52 49 46 49 50 51 50 49 49 50 49 48 45 43 40 39 41 40 42 40 38 38 39 42 42 42 41 40 40 39 39 39 39 39 38 38 38 37
MSLP
1012.67 1012.60 1011.77 1011.52 1011.63 1011.66 1011.66 1012.53 1012.65 1012.63 1013.19 1013.11 1012.71 1012.53 1012.38 1012.38 1012.28 1012.01 1011.68 1011.47 1011.42 1011.53 1011.82 1012.06 1012.02 1012.02 1011.89 1011.82 1011.71 1011.74 1011.81 1012.04 1012.18 1012.27 1013.24 1013.57 1013.56 1013.76 1014.06 1014.00 1013.97 1013.81 1014.16 1014.40
1012.86 1012.33 1012.27 1011.90 1012.06 1012.26 1012.22 1012.43 1012.72 1013.41 1013.60 1013.45 1013.07 1012.72 1012.40 1012.15 1012.11 1012.29 1012.14 1011.84 1011.80 1012.05 1012.10 1012.12 1011.99 1011.88 1011.78 1011.70 1011.54 1011.41 1011.42 1011.52 1011.66 1011.68 1011.94 1012.45 1012.65 1012.91 1013.16 1013.37 1013.60 1013.70 1013.54 1013.94
1012.33 1012.44 1012.14 1012.36 1012.34 1012.40 1012.66 1012.72 1013.01 1013.12 1013.82 1013.99 1013.55 1012.48 1012.28 1012.90 1013.03 1013.10 1012.93 1012.82 1012.73 1012.58 1012.31 1012.17 1011.99 1011.97 1011.89 1011.80 1011.77 1011.64 1011.53 1011.54 1011.54 1011.61 1011.50 1011.69 1012.01 1012.12 1012.34 1012.58 1012.71 1012.85 1013.08 1012.95
1013.79 1013.35 1012.62 1012.62 1012.55 1012.66 1013.14 1013.58 1013.46 1013.62 1013.77 1013.34 1013.72 1011.98 1012.36 1012.83 1013.21 1013.21 1013.20 1013.14 1013.06 1012.97 1012.77 1012.61 1012.41 1012.27 1012.22 1012.25 1012.12 1011.96 1011.79 1011.72 1011.69 1011.73 1011.46 1011.25 1011.26 1011.37 1011.49 1011.43 1011.65 1011.89 1012.30 1012.65
1014.88 1014.07 1013.43 1013.51 1013.16 1013.31 1014.09 1014.14 1014.04 1014.12 1014.04 1013.93 1013.65 1013.03 1012.56 1012.92 1013.10 1013.35 1013.39 1013.38 1013.38 1013.34 1013.25 1012.93 1012.77 1012.74 1012.68 1012.68 1012.42 1012.04 1011.73 1011.53 1011.47 1011.36 1011.36 1011.03 1010.95 1010.79 1010.76 1011.05 1011.16 1011.25 1011.60 1011.93
1014.90 1014.63 1014.41 1014.41 1014.66 1014.76 1014.76 1014.52 1014.76 1014.73 1014.55 1014.07 1013.42 1013.31 1012.30 1012.38 1012.59 1013.21 1013.48 1013.47 1013.54 1013.49 1013.32 1013.08 1013.06 1012.90 1012.75 1012.71 1012.54 1012.17 1011.78 1011.58 1011.45 1011.35 1011.23 1010.98 1010.76 1010.69 1010.68 1010.82 1010.86 1010.95 1011.13 1011.49
1015.35 1015.55 1015.40 1014.90 1015.43 1015.64 1015.28 1014.74 1014.77 1014.79 1014.45 1013.82 1014.13 1013.69 1011.87 1012.50 1012.91 1012.98 1013.51 1013.67 1013.68 1013.56 1013.42 1013.33 1013.20 1013.06 1012.86 1012.67 1012.51 1012.29 1012.01 1011.65 1011.49 1011.35 1011.28 1011.12 1011.01 1010.88 1010.63 1010.53 1010.54 1010.60 1010.67 1011.05
1014.79 1015.93 1015.77 1015.66 1015.09 1015.00 1015.22 1014.52 1013.89 1013.53 1013.63 1013.82 1014.47 1012.90 1011.96 1012.71 1013.08 1013.41 1013.74 1013.85 1013.83 1013.67 1013.64 1013.51 1013.46 1013.41 1013.12 1012.96 1012.73 1012.40 1012.15 1011.92 1011.72 1011.54 1011.34 1011.13 1011.02 1010.85 1010.62 1010.42 1010.30 1010.16 1010.11 1010.12
1013.86 1015.21 1015.51 1015.56 1015.24 1015.10 1015.29 1015.11 1015.24 1014.59 1015.00 1014.07 1012.83 1012.67 1012.76 1012.92 1013.25 1013.44 1013.43 1013.60 1013.75 1013.75 1013.75 1013.78 1013.68 1013.51 1013.44 1013.31 1013.19 1012.90 1012.51 1012.23 1012.07 1011.82 1011.61 1011.32 1011.10 1010.97 1010.76 1010.70 1010.57 1010.34 1010.14 1010.05
1013.57 1014.60 1015.43 1015.71 1015.48 1015.63 1015.20 1015.43 1015.57 1015.07 1014.33 1013.19 1012.38 1011.79 1011.07 1012.05 1012.63 1013.08 1013.21 1013.51 1013.79 1013.93 1014.10 1014.13 1013.93 1014.03 1014.02 1014.00 1013.77 1013.41 1013.09 1012.73 1012.47 1012.34 1012.10 1011.96 1011.80 1011.63 1011.34 1011.00 1010.73 1010.49 1010.31 1010.31
1013.18 1013.68 1015.51 1015.38 1015.21 1015.10 1015.72 1015.46 1015.46 1014.94 1014.57 1013.29 1012.09 1011.08 1010.53 1011.33 1012.13 1012.85 1013.19 1013.53 1013.94 1014.15 1014.23 1014.26 1014.35 1014.59 1014.60 1014.54 1014.28 1014.02 1013.70 1013.35 1013.11 1012.91 1012.62 1012.47 1012.37 1012.24 1012.07 1011.88 1011.64 1011.30 1010.93 1010.89
1013.31 1013.97 1014.95 1015.38 1015.68 1015.54 1015.33 1015.13 1015.07 1014.71 1014.94 1014.65 1013.49 1011.50 1011.46 1011.55 1012.06 1012.83 1013.15 1013.71 1014.03 1014.31 1014.65 1014.69 1014.84 1014.96 1014.92 1014.90 1014.74 1014.56 1014.34 1013.97 1013.69 1013.31 1012.97 1012.74 1012.60 1012.47 1012.29 1012.13 1011.86 1011.68 1011.43 1011.19
1013.01 1013.98 1014.97 1015.77 1016.22 1015.98 1015.67 1015.57 1015.61 1015.54 1015.38 1014.76 1013.36 1011.71 1011.88 1012.09 1012.46 1012.66 1013.08 1013.52 1014.01 1014.49 1014.70 1014.83 1015.04 1015.29 1015.23 1015.24 1015.26 1015.14 1014.83 1014.52 1014.16 1013.80 1013.45 1013.34 1013.26 1013.06 1012.92 1012.93 1012.68 1012.48 1012.34 1012.09
1013.21 1014.05 1014.45 1014.62 1014.92 1015.22 1015.62 1015.56 1015.71 1015.66 1015.53 1014.48 1013.37 1012.05 1011.63 1011.90 1012.15 1012.37 1012.94 1013.65 1014.27 1014.63 1014.81 1015.03 1015.26 1015.44 1015.72 1015.86 1015.73 1015.59 1015.53 1015.41 1015.13 1014.70 1014.38 1014.22 1014.43 1014.48 1014.33 1014.08 1014.02 1013.82 1013.53 1013.41
1013.66 1014.36 1015.07 1015.28 1015.38 1015.41 1015.32 1015.37 1015.59 1015.58 1015.01 1014.30 1013.23 1012.42 1011.73 1011.72 1011.90 1012.30 1013.19 1014.08 1014.63 1014.93 1015.13 1015.49 1015.73 1015.93 1016.28 1016.34 1016.21 1016.22 1016.17 1016.03 1015.62 1015.17 1015.08 1015.37 1015.51 1015.28 1015.22 1015.26 1015.03 1014.85 1014.90 1015.00
1014.18 1014.99 1015.55 1015.58 1015.61 1015.51 1015.26 1015.00 1014.95 1014.93 1014.68 1014.09 1013.49 1012.40 1011.78 1011.70 1012.21 1012.70 1013.58 1014.46 1015.09 1015.44 1015.67 1015.94 1016.13 1016.37 1016.62 1016.55 1016.32 1016.34 1016.45 1016.43 1016.18 1016.03 1015.98 1015.97 1016.12 1016.29 1016.32 1016.11 1015.99 1015.92 1015.61 1015.93
1014.22 1014.96 1015.57 1015.41 1015.57 1015.25 1014.60 1013.50 1013.80 1013.92 1013.84 1013.50 1013.01 1012.02 1011.86 1011.93 1012.46 1013.13 1014.00 1014.74 1015.27 1015.69 1015.99 1016.22 1016.49 1016.65 1016.75 1016.88 1016.72 1016.99 1017.04 1016.91 1016.79 1016.80 1016.65 1016.72 1016.90 1017.17 1017.17 1017.19 1017.07 1016.91 1016.70 1017.11
1014.23 1014.76 1015.34 1015.25 1015.10 1014.28 1012.79 1012.74 1012.65 1012.79 1012.68 1012.74 1012.18 1011.86 1011.94 1012.15 1012.85 1013.62 1014.38 1014.88 1015.30 1015.83 1016.28 1016.65 1016.80 1016.98 1017.07 1017.16 1017.08 1017.41 1017.42 1017.49 1017.65 1017.76 1017.57 1017.63 1017.78 1017.90 1017.92 1017.90 1017.96 1017.95 1018.23 1018.67
1014.28 1014.63 1015.07 1014.98 1014.22 1012.95 1011.91 1012.18 1012.10 1011.98 1011.62 1011.50 1011.69 1011.46 1011.77 1012.35 1013.03 1013.77 1014.62 1015.19 1015.63 1016.05 1016.51 1016.92 1017.26 1017.41 1017.47 1017.43 1017.45 1017.72 1017.93 1017.96 1018.34 1018.49 1018.33 1018.59 1018.62 1018.67 1018.76 1018.80 1019.06 1019.11 1019.19 1019.49
1014.61 1014.63 1014.84 1015.00 1014.13 1012.32 1011.50 1011.47 1011.52 1011.59 1011.19 1011.23 1011.44 1011.39 1011.65 1012.37 1012.59 1013.44 1014.74 1015.48 1016.02 1016.43 1016.76 1017.05 1017.43 1017.77 1017.92 1017.90 1017.98 1018.21 1018.46 1018.59 1019.01 1019.17 1019.27 1019.34 1019.29 1019.35 1019.51 1019.72 1019.80 1019.82 1019.83 1020.22
1014.56 1014.76 1014.55 1014.28 1013.56 1011.95 1011.37 1011.45 1011.66 1011.51 1011.39 1011.16 1011.36 1011.46 1011.76 1012.26 1012.82 1014.00 1014.98 1015.84 1016.34 1016.71 1017.09 1017.43 1017.74 1017.98 1018.22 1018.40 1018.80 1019.12 1019.12 1019.33 1019.54 1019.73 1019.84 1019.81 1019.86 1019.96 1020.15 1020.33 1020.45 1020.44 1020.38 1020.60
1013.76 1013.99 1014.01 1013.97 1013.20 1011.91 1011.41 1011.55 1011.42 1011.23 1011.01 1011.13 1011.29 1011.48 1011.90 1012.52 1013.51 1014.43 1015.34 1016.18 1016.69 1016.99 1017.33 1017.61 1017.90 1018.40 1018.70 1018.92 1019.23 1019.54 1019.54 1019.83 1020.03 1020.16 1020.22 1020.25 1020.15 1020.27 1020.45 1020.49 1020.45 1020.38 1020.42 1020.65
1013.18 1012.66 1012.62 1012.67 1011.61 1011.18 1011.24 1011.25 1011.22 1011.32 1011.20 1011.28 1011.48 1011.61 1011.99 1012.74 1013.69 1014.58 1015.64 1016.38 1016.79 1017.13 1017.66 1018.04 1018.37 1018.80 1019.13 1019.29 1019.41 1019.64 1020.03 1020.20 1020.34 1020.29 1020.39 1020.44 1020.41 1020.50 1020.67 1020.66 1020.74 1020.77 1020.85 1020.95
1012.41 1012.48 1012.23 1012.01 1010.75 1010.97 1011.09 1011.21 1011.38 1011.58 1011.62 1011.65 1011.78 1011.90 1012.28 1012.61 1013.47 1014.52 1015.55 1016.37 1016.78 1017.08 1017.63 1017.88 1018.38 1018.76 1019.16 1019.43 1019.53 1019.79 1020.08 1020.11 1020.19 1020.29 1020.44 1020.49 1020.58 1020.79 1021.01 1021.13 1021.18 1021.09 1021.17 1021.22
1011.94 1012.08 1011.53 1011.28 1011.09 1010.98 1010.76 1011.16 1011.42 1011.77 1011.99 1011.97 1012.07 1012.18 1012.37 1012.68 1013.27 1014.08 1015.14 1016.03 1016.63 1017.02 1017.43 1017.82 1018.14 1018.57 1019.04 1019.30 1019.53 1019.73 1019.89 1020.05 1020.18 1020.47 1020.66 1020.77 1020.95 1021.10 1021.30 1021.45 1021.47 1021.54 1021.84 1021.78
1011.59 1011.16 1011.06 1010.48 1010.65 1010.75 1010.97 1011.48 1011.82 1012.07 1012.02 1012.03 1012.08 1012.18 1012.41 1012.62 1013.04 1013.76 1014.63 1015.48 1016.20 1016.78 1017.06 1017.60 1017.93 1018.39 1018.92 1019.22 1019.42 1019.56 1019.93 1020.06 1020.20 1020.53 1020.79 1021.05 1021.26 1021.48 1021.59 1021.73 1021.96 1022.27 1022.31 1022.41
Wind_Speed
19 5 14 20 18 1 8 16 9 7 6 7 12 11 12 12 13 14 15 14 12 10 9 11 11 11 11 11 12 12 12 13 12 11 7 8 9 9 7 10 14 15 14 16
11 14 14 14 14 7 12 13 10 5 5 6 4 8 13 14 13 9 10 10 8 5 3 4 6 6 7 9 11 12 13 14 13 11 11 12 11 10 11 9 11 13 16 16
15 5 14 16 14 12 9 12 10 4 6 1 4 7 6 3 4 5 6 5 5 5 5 7 7 7 5 5 7 9 11 12 12 12 11 10 10 8 9 11 11 14 15 16
3 6 18 18 18 14 11 3 8 8 7 3 3 3 4 7 9 9 10 8 7 7 7 7 7 8 9 8 6 5 6 8 9 10 12 15 12 12 12 12 11 11 15 14
4 7 14 17 18 13 5 7 6 4 3 2 4 5 8 9 10 9 8 7 7 7 6 7 8 7 7 7 7 6 5 4 5 9 11 11 14 11 10 10 14 14 11 15
6 4 5 4 8 6 11 10 8 4 1 4 4 5 9 9 11 9 5 6 5 6 6 8 7 7 8 8 8 7 7 6 5 3 8 12 14 13 10 10 10 10 8 8
2 4 2 8 8 5 2 9 4 4 4 2 1 5 4 9 6 9 5 5 5 5 7 8 9 9 10 11 10 7 7 6 6 5 4 5 9 11 13 12 10 12 8 8
3 5 2 2 1 6 7 4 2 4 5 4 3 6 4 7 8 9 2 3 3 5 6 7 8 8 9 10 11 11 9 7 7 7 6 5 5 4 6 9 10 9 10 9
5 5 4 2 2 2 4 4 3 5 2 2 4 4 4 4 9 7 2 3 4 5 8 8 8 8 9 10 11 11 9 8 7 7 6 6 6 5 6 8 8 8 10 9
3 6 2 5 3 9 2 9 4 0 4 5 5 4 5 12 14 7 2 4 3 4 5 7 8 8 9 9 9 8 8 8 8 8 6 6 7 7 7 7 8 9 9 8
6 3 3 3 2 6 5 3 2 1 3 2 2 4 8 15 13 5 4 3 2 4 6 7 7 7 7 8 8 8 9 9 9 9 8 7 6 6 6 6 7 6 5 5
2 5 5 2 2 3 1 2 3 3 4 2 4 4 5 9 9 2 5 1 2 4 5 6 6 7 7 8 8 9 8 9 9 9 8 8 8 8 7 6 6 5 4 1
5 3 6 5 3 2 5 4 2 5 2 5 2 5 4 5 6 4 5 1 4 4 4 5 6 6 7 8 8 8 9 10 10 10 10 11 11 10 10 10 9 8 6 5
3 3 2 0 4 3 5 8 9 4 3 5 6 2 7 7 4 7 3 1 2 3 4 6 6 7 6 6 7 9 9 9 7 7 9 11 11 11 10 9 9 9 10 9
2 3 0 1 1 2 3 6 12 8 5 6 2 5 4 6 7 6 1 0 2 2 2 4 4 5 5 5 6 6 6 7 7 9 11 10 10 10 10 10 10 11 11 10
2 3 1 1 0 5 6 9 9 13 13 12 13 18 15 6 3 2 2 2 2 1 2 2 3 3 4 6 7 7 7 7 8 9 10 10 10 10 10 10 11 11 11 10
4 5 2 2 2 3 8 16 17 10 9 11 11 9 5 4 5 3 4 3 1 2 0 1 2 4 6 6 7 6 6 7 8 8 9 10 10 9 10 10 11 10 13 11
6 5 1 1 2 4 3 2 4 16 10 15 11 13 10 6 2 3 3 2 1 2 2 2 2 4 5 5 6 5 7 9 8 7 8 8 8 8 8 10 10 10 9 9
1 4 3 3 4 7 2 4 6 7 1 14 17 15 8 3 4 4 4 2 2 2 3 3 4 4 4 6 6 6 7 8 7 7 8 6 7 8 8 9 9 8 9 9
4 2 3 2 3 3 4 3 2 4 5 5 8 6 3 6 3 3 7 5 4 3 3 3 4 4 5 5 5 6 7 9 8 7 6 6 7 8 8 8 8 8 9 8
3 2 7 5 4 6 3 4 1 4 5 1 2 4 4 5 3 8 7 5 4 4 4 4 5 5 5 5 6 6 6 7 6 6 6 7 7 8 7 8 7 7 8 8
8 6 4 5 5 7 2 4 4 2 0 1 3 4 5 4 7 8 7 7 6 6 5 4 5 5 5 6 6 6 6 5 6 6 7 7 8 6 5 7 7 7 7 7
6 6 3 7 4 1 2 1 2 2 8 7 4 2 3 8 8 10 9 8 7 7 6 5 6 6 6 6 6 7 5 6 7 8 8 7 7 7 6 6 6 5 5 4
6 7 4 3 4 10 10 6 2 4 5 4 3 2 4 6 9 10 10 8 8 8 8 8 8 8 8 7 6 7 7 7 7 8 7 6 7 7 5 4 4 4 3 3
1 8 8 9 8 8 11 4 3 4 4 4 2 3 5 6 10 11 10 10 9 9 10 9 8 9 8 8 8 8 7 8 7 7 6 6 5 5 5 5 4 4 5 4
6 7 6 6 5 4 3 3 3 7 5 4 4 4 4 7 9 12 10 10 10 9 11 9 10 11 9 8 8 8 8 8 8 6 5 4 4 4 4 4 5 7 7 6
Wind_Direction
189 194 188 184 195 27 179 196 189 209 137 209 229 241 247 255 261 258 263 268 269 273 290 286 281 273 265 255 245 239 241 233 234 223 209 219 212 221 219 229 232 226 220 220
168 210 207 182 179 164 183 189 183 105 163 233 205 250 250 252 266 287 284 281 291 292 312 336 322 296 271 264 258 247 236 233 229 233 215 224 222 231 231 228 226 226 229 225
181 208 193 186 179 183 191 199 171 149 148 109 275 243 201 126 95 110 94 96 72 48 34 33 40 34 18 333 282 260 255 248 244 238 239 231 232 233 228 226 227 224 226 224
149 300 188 185 188 183 179 170 151 138 186 206 277 171 116 130 114 110 103 83 60 46 43 41 34 37 28 12 358 297 269 255 248 244 240 232 229 230 232 236 231 231 226 227
183 228 172 185 186 193 110 156 122 116 136 253 185 245 109 154 138 126 94 72 57 37 27 26 26 22 21 14 10 13 354 295 262 241 230 237 235 244 243 242 243 239 231 229
33 360 27 100 76 73 134 110 84 92 105 230 152 259 161 177 164 142 106 62 58 35 27 23 21 17 20 20 13 11 12 32 20 260 233 237 240 242 243 245 247 249 239 233
28 46 34 109 79 89 75 169 139 175 189 257 136 218 58 142 165 146 88 54 36 22 28 14 9 3 3 1 2 360 2 4 4 4 342 273 261 264 260 255 253 252 248 243
89 113 60 235 133 172 178 245 278 193 179 129 158 226 122 139 140 149 80 12 14 36 21 14 8 349 348 345 344 350 351 353 2 360 350 321 289 269 262 259 258 258 256 247
122 83 99 126 118 165 169 217 17 94 61 233 173 210 215 177 194 204 303 345 34 22 4 2 354 351 349 344 343 339 339 345 355 352 345 345 332 305 284 283 275 270 268 266
122 112 38 156 161 57 265 131 170 198 185 224 175 238 135 150 157 178 1 6 32 4 5 357 357 359 357 350 349 350 346 343 351 348 352 346 351 343 328 312 295 288 285 288
137 94 149 196 211 175 152 189 80 91 315 282 191 127 132 150 148 119 15 10 358 355 5 9 16 9 11 10 13 11 7 359 358 358 354 359 356 351 344 335 324 312 305 287
74 103 151 140 36 309 300 210 212 262 162 30 333 100 163 161 168 86 358 4 359 24 9 31 29 18 19 19 19 17 13 13 7 2 2 3 2 1 359 353 348 339 324 314
163 108 127 161 193 185 220 193 150 101 60 197 243 114 145 182 214 276 328 34 26 11 28 35 31 27 22 16 15 15 17 15 14 14 19 19 18 15 19 12 12 17 16 39
97 109 304 332 82 112 191 193 194 164 182 168 231 355 175 183 265 324 338 312 6 17 36 35 24 25 12 15 21 20 16 13 12 31 39 37 32 33 31 33 34 41 49 59
39 104 57 39 65 191 218 197 194 205 193 212 57 230 248 301 312 323 18 191 344 350 38 32 31 25 354 18 41 34 29 19 25 44 46 40 36 42 41 43 47 56 52 48
26 107 80 21 49 250 266 243 221 223 235 253 262 279 280 293 304 297 248 209 251 311 23 29 20 25 10 21 33 29 25 31 40 52 53 52 50 43 44 49 57 61 67 59
129 137 169 228 354 281 262 231 211 206 208 220 220 233 225 288 309 307 215 208 223 194 124 53 26 32 32 31 38 32 28 41 45 53 57 59 63 57 53 59 60 57 61 56
155 118 140 305 248 234 75 120 218 214 229 222 249 251 259 293 307 173 172 206 183 174 147 140 92 70 53 59 61 48 54 58 54 51 63 62 70 75 76 71 60 60 60 60
223 142 140 261 243 307 196 158 168 183 165 224 234 257 269 230 181 177 158 118 145 143 132 112 56 58 60 61 58 70 66 71 64 55 62 60 70 72 65 63 63 64 71 62
92 72 227 148 269 254 67 110 217 205 167 173 207 250 212 172 235 107 157 152 140 130 136 132 103 84 72 58 69 82 79 73 65 59 63 67 73 72 73 74 75 74 77 74
160 157 219 216 268 280 249 223 339 230 88 116 217 245 214 219 25 122 131 136 143 136 132 118 94 83 80 88 94 89 84 77 80 82 82 81 77 78 85 91 88 97 97 99
189 192 199 204 229 257 149 131 199 4 55 284 291 266 236 157 128 142 152 161 158 136 125 123 112 98 98 109 112 99 86 92 91 90 84 85 100 99 103 108 104 100 100 99
208 215 188 217 230 20 216 248 300 256 294 301 267 249 221 158 171 166 171 169 156 148 142 139 129 124 116 125 126 111 104 109 117 115 112 112 103 96 95 95 95 93 91 93
217 192 240 207 221 241 247 251 316 334 303 296 262 286 210 201 172 168 165 166 161 156 160 160 148 143 139 140 130 124 136 137 134 118 110 106 98 96 92 91 84 88 84 84
237 164 219 246 262 271 262 220 138 350 282 260 239 241 241 212 181 173 172 171 169 164 160 166 164 155 154 153 146 150 149 149 133 124 119 107 100 98 92 69 57 72 55 37
190 208 212 248 214 236 141 103 27 296 316 301 256 225 219 210 191 182 177 170 169 172 164 170 172 163 164 161 154 152 154 152 143 137 131 131 127 116 110 112 109 80 78 80